Newark-Heath (VTA)

 

Airport Diagram
No Airport Diagram Available
Current Weather/Forecast (VFR Conditions)
METAR KVTA 071154Z AUTO 32005KT 9SM -RA OVC033 08/07 A2992 RMK AO2 SLP134 P0004 60030 7//// T00830067 10094 20083 53012
TAF

Airport Information

All Charts
General
Chart Name View
TAKEOFF MINIMUMS
ALTERNATE MINIMUMS

Arrivals
Chart Name Download
GAILL THREE (RNAV)
GUNNE FOUR
GUNNE FOUR, CONT.1

Approaches
Chart Name Download
RNAV (GPS) RWY 09
RNAV (GPS) RWY 27
LOC RWY 09
VOR-A


Airport Statistics
Departures Arrivals Local
All Collected Stats since June 2016: 24 9 2
2021 Stats: 0 0 0
May Stats: 0 0 0

Inbound Traffic (Arrivals) - 0

No inbound traffic.


Outbound Traffic (Departures) - 0

No outbound traffic.


Local Traffic (Pattern) - 0

No local traffic.